Wind_Speed
3 5 4 3 2 1 1 4 5 6 7 7 7 8 7 5 4 5 10 29 24 16 15 17 16 15 15 15 15 15 14 14 14 16 14 15 15 14 12 16 15 14 15
5 5 6 4 3 3 3 4 4 4 5 6 5 6 7 5 5 6 6 6 13 14 14 14 15 15 15 15 16 15 15 16 15 15 14 14 15 16 13 14 14 13 14
6 5 7 4 4 5 5 5 4 4 4 5 6 4 3 4 4 4 6 5 3 6 12 14 14 14 15 16 16 15 15 16 17 15 16 14 15 17 14 12 13 12 12
6 4 4 3 3 5 4 4 4 3 3 5 6 7 7 6 5 5 4 4 3 4 10 12 13 13 15 15 16 16 15 16 17 16 16 15 14 16 16 12 12 12 11
7 5 3 2 1 3 4 5 4 5 5 6 7 7 5 5 5 4 4 3 1 4 4 17 12 12 13 14 15 15 15 14 15 15 15 15 14 14 15 15 13 12 11
7 6 3 2 1 3 4 5 5 6 6 6 6 6 4 3 3 1 2 2 2 4 2 10 16 11 12 12 12 12 14 14 13 13 13 13 13 13 13 13 12 10 10
6 6 4 3 2 2 3 6 6 7 8 8 7 5 6 6 6 5 4 3 4 4 3 1 9 16 13 13 12 12 12 12 11 11 10 9 8 9 10 10 10 9 8
7 6 3 2 2 1 3 7 7 7 8 8 7 5 4 5 6 7 8 9 8 6 3 1 1 2 12 14 13 12 11 10 10 9 9 8 5 4 5 6 7 7 6
11 8 5 3 3 2 3 7 7 7 7 7 8 7 5 4 4 5 5 8 8 7 6 4 2 1 4 10 14 14 14 12 10 9 8 8 6 3 2 3 4 5 5
14 11 7 6 5 5 5 7 7 8 7 7 7 8 8 6 3 3 4 4 5 5 5 7 6 5 4 7 7 16 15 13 11 10 10 9 8 6 4 3 2 2 2
18 17 12 9 7 6 6 7 9 10 9 8 9 9 9 7 6 3 3 4 4 4 4 7 6 8 4 5 8 16 17 13 13 12 11 10 8 7 6 5 4 2 2
16 16 12 11 10 10 10 8 9 11 12 11 10 10 9 9 7 6 5 5 6 6 6 5 7 7 9 8 3 15 16 12 13 13 12 11 11 10 9 8 6 4 3
17 15 12 12 10 6 8 12 11 12 12 14 13 13 12 11 8 7 7 8 8 8 9 9 8 7 7 11 9 8 13 15 14 16 15 14 15 14 14 11 10 7 7
20 15 16 18 19 4 7 13 19 18 16 15 15 14 13 11 9 8 11 10 9 10 12 11 10 11 10 10 11 11 12 13 14 16 14 14 14 16 17 16 13 11 11
22 19 17 17 19 10 15 18 12 22 19 18 19 15 12 8 6 6 8 10 10 10 10 11 12 11 13 12 12 13 13 14 15 17 17 15 15 15 16 17 16 15 15
24 22 18 16 17 18 19 17 14 10 12 15 20 16 12 10 5 3 7 8 10 10 8 9 9 12 14 14 13 14 14 15 17 18 19 18 17 18 19 19 20 19 18
22 23 20 15 21 21 21 17 19 8 11 3 19 18 12 18 8 8 11 9 10 8 7 8 9 9 11 13 13 16 18 17 16 16 19 21 21 20 19 21 22 22 22
22 21 22 19 23 24 22 21 18 4 7 8 15 15 9 5 12 12 9 10 9 10 11 11 14 14 14 16 17 18 19 23 21 18 17 20 19 20 23 23 22 21 23
23 21 23 22 25 27 23 20 20 9 10 11 14 13 14 13 11 10 10 9 10 10 9 12 12 11 16 18 23 20 20 22 27 23 20 20 19 21 23 24 22 22 22
24 21 22 22 25 27 23 22 16 9 13 11 17 15 16 14 10 12 10 7 7 8 11 12 12 13 14 13 18 21 24 19 24 24 23 21 20 18 19 22 23 22 20
22 22 22 23 27 30 27 24 17 5 12 16 14 17 16 13 12 10 6 5 9 11 13 13 13 13 14 11 12 15 17 22 22 25 26 25 21 20 19 22 22 22 22
23 21 20 22 25 30 30 26 16 5 5 8 13 15 15 12 13 10 8 10 12 13 12 12 11 12 13 13 13 12 15 16 17 20 22 25 24 22 21 24 25 26 24
24 21 21 19 21 25 27 23 20 14 5 8 13 10 13 13 11 10 10 12 14 15 13 13 14 13 12 13 14 14 15 16 17 19 20 19 19 21 22 25 26 24 23
23 21 23 13 17 22 23 24 18 13 15 6 7 9 7 5 8 10 11 12 11 10 11 10 11 11 11 14 16 17 17 17 18 18 18 19 18 19 18 20 27 25 25
21 21 15 12 16 17 19 19 18 18 14 5 3 3 3 3 5 5 6 5 6 6 7 9 11 14 14 15 16 17 18 18 18 17 18 18 19 20 22 21 22 28 25
21 20 16 14 17 18 20 21 20 20 14 12 6 3 3 3 2 0 2 4 5 6 8 10 11 14 12 10 12 13 15 16 16 17 18 19 19 20 21 21 22 23 24
Wind_Direction
129 171 172 170 142 126 217 179 162 154 144 139 133 124 123 131 114 89 70 140 120 126 126 122 118 117 121 122 121 124 121 120 122 117 112 109 109 100 103 105 101 96 95
130 163 174 196 195 247 240 238 232 195 166 158 154 132 121 119 109 107 101 106 143 131 127 122 119 117 115 115 119 123 125 124 121 117 113 113 110 102 97 98 97 97 96
130 158 170 192 228 241 243 248 235 210 187 170 171 164 137 160 188 130 115 111 80 127 146 137 126 119 116 117 121 123 124 125 120 120 114 111 114 109 96 91 91 92 97
124 130 146 182 239 229 221 211 213 198 166 147 140 137 123 109 153 173 162 153 245 352 152 146 137 133 126 125 124 124 125 126 125 120 113 108 105 108 105 94 93 92 96
99 101 99 114 199 193 180 193 197 175 173 154 142 154 131 116 119 160 192 181 292 333 332 153 145 144 140 136 131 131 129 131 126 122 117 111 108 109 107 105 99 95 95
86 86 75 74 144 147 184 190 183 188 189 182 173 188 184 180 163 171 176 236 300 330 49 157 176 162 156 149 149 140 141 139 136 129 125 121 119 113 111 109 102 94 89
60 71 56 43 75 101 215 202 186 192 190 190 181 198 218 225 229 234 235 258 292 317 11 41 116 173 175 166 163 153 148 147 147 146 139 130 128 121 114 108 102 96 83
51 40 32 11 358 89 255 225 203 202 185 181 187 184 213 229 233 233 242 247 257 266 260 228 223 198 162 176 177 171 166 164 160 166 159 152 156 143 129 120 108 97 90
49 37 10 340 304 266 245 259 226 220 205 186 181 179 189 210 224 220 221 239 239 241 245 208 218 257 147 166 195 186 186 184 176 183 181 174 181 202 171 128 104 103 101
37 29 6 345 327 295 257 242 242 236 231 207 196 182 183 189 193 211 205 212 243 226 228 247 222 226 215 192 213 202 198 194 206 202 205 206 209 208 226 198 160 99 60
28 28 11 354 328 303 286 257 240 238 232 221 210 198 190 199 193 193 216 219 227 240 242 253 239 229 214 202 215 201 203 198 203 209 213 218 227 236 239 242 231 164 51
32 22 21 3 342 317 303 271 252 246 242 232 215 208 207 214 212 208 216 232 233 236 235 248 266 259 238 234 247 190 199 205 218 224 225 230 234 238 242 249 247 237 208
17 8 3 11 346 292 306 295 266 252 246 238 225 213 211 214 219 226 232 226 233 244 238 240 251 262 249 256 257 218 208 210 222 224 236 247 249 252 243 241 249 248 257
10 13 2 11 3 335 276 312 281 278 237 238 236 220 210 211 215 220 239 242 235 238 245 241 245 256 259 258 257 253 239 225 228 225 232 242 256 262 252 244 248 256 251
8 7 6 9 12 22 348 336 301 279 256 240 234 225 209 195 208 216 243 249 248 253 241 234 249 250 257 259 258 255 252 250 246 244 246 253 256 257 252 247 251 257 251
0 359 1 358 1 2 346 339 343 297 248 250 224 218 207 189 178 235 242 255 244 245 245 244 251 259 255 252 255 260 256 254 252 252 253 253 250 254 249 253 258 258 258
3 1 355 358 354 358 352 342 332 302 258 296 214 218 209 220 209 237 256 239 251 257 261 266 268 263 253 253 260 256 257 258 257 255 255 254 251 251 255 253 253 255 255
3 6 2 12 357 355 352 336 327 310 219 240 212 200 213 237 246 240 246 250 260 272 270 256 271 254 251 262 260 254 257 254 250 250 253 253 252 256 252 252 256 256 256
359 4 1 356 358 354 350 333 327 227 221 234 206 209 205 238 240 246 246 252 259 273 270 271 276 264 255 272 249 250 254 252 247 250 248 251 259 261 252 253 258 260 258
355 355 356 355 355 353 353 344 341 268 238 239 207 215 216 230 228 229 230 255 275 286 282 275 266 265 266 276 245 247 252 257 246 245 250 254 262 266 253 250 254 258 264
348 347 346 353 352 354 359 5 357 321 210 230 239 226 220 227 235 275 236 259 277 283 286 287 283 283 280 278 268 262 265 251 240 243 253 256 259 262 260 257 250 250 267
342 339 339 350 352 357 9 9 11 340 202 214 219 206 227 230 229 251 266 276 287 288 291 285 286 290 280 270 269 269 268 269 255 243 252 259 258 261 261 254 260 269 262
335 331 340 337 349 0 12 16 5 17 176 175 175 216 235 215 202 257 268 277 280 289 302 295 291 296 293 276 272 270 269 264 261 255 257 267 255 253 265 259 258 261 260
334 329 326 352 348 360 8 19 17 359 7 32 65 36 6 338 268 261 264 268 284 306 306 301 295 297 295 286 280 275 269 262 259 257 257 255 259 252 257 264 257 259 258
348 337 336 357 342 346 350 4 10 8 340 346 7 349 322 254 256 263 263 286 317 302 307 316 314 301 292 286 281 277 272 266 258 257 258 263 260 259 254 260 260 256 243
339 345 349 347 340 335 339 345 346 349 330 305 292 295 331 344 353 264 287 342 326 325 319 316 314 311 300 303 294 281 273 266 259 255 256 256 256 256 254 251 263 250 245
Height
5905 5905 5904 5904 5904 5904 5905 5906 5906 5906 5907 5906 5906 5907 5906 5906 5906 5906 5906 5906 5907 5907 5909 5909 5910 5911 5912 5911 5911 5912 5913 5913 5913 5913 5914 5915 5915 5916 5916 5914 5914 5915 5915
5905 5905 5904 5905 5905 5905 5905 5906 5906 5906 5906 5906 5906 5906 5908 5907 5907 5907 5908 5907 5906 5908 5910 5911 5911 5912 5913 5912 5913 5913 5914 5914 5915 5915 5915 5916 5917 5917 5918 5917 5916 5916 5916
5905 5904 5905 5905 5906 5906 5906 5906 5906 5906 5906 5906 5906 5906 5907 5908 5907 5907 5907 5908 5908 5909 5911 5912 5913 5913 5914 5914 5915 5915 5916 5916 5916 5916 5916 5917 5918 5917 5919 5919 5919 5918 5919
5905 5905 5905 5905 5906 5906 5906 5906 5906 5906 5906 5906 5906 5907 5907 5908 5908 5909 5908 5908 5907 5905 5910 5912 5914 5915 5915 5916 5916 5917 5918 5918 5918 5918 5918 5919 5919 5919 5919 5920 5921 5921 5921
5905 5905 5906 5906 5906 5906 5906 5906 5906 5906 5907 5907 5907 5908 5908 5909 5909 5910 5909 5909 5909 5909 5911 5912 5914 5915 5916 5917 5918 5918 5919 5920 5920 5920 5920 5921 5921 5921 5922 5922 5923 5923 5924
5906 5906 5906 5906 5905 5905 5906 5905 5906 5907 5907 5906 5906 5908 5908 5909 5910 5911 5911 5910 5910 5910 5911 5913 5914 5916 5917 5917 5919 5919 5920 5921 5922 5922 5923 5923 5923 5924 5924 5923 5924 5925 5925
5907 5907 5907 5906 5906 5905 5906 5905 5904 5905 5905 5905 5906 5907 5907 5908 5908 5910 5911 5910 5910 5911 5911 5911 5912 5915 5915 5916 5919 5920 5921 5922 5923 5924 5924 5925 5925 5926 5925 5925 5925 5926 5926
5909 5908 5908 5907 5907 5905 5905 5906 5904 5904 5904 5904 5905 5906 5907 5907 5908 5908 5909 5910 5911 5911 5912 5913 5912 5913 5913 5916 5918 5919 5921 5922 5923 5925 5925 5926 5927 5927 5927 5927 5927 5927 5927
5910 5909 5909 5908 5907 5906 5905 5905 5904 5904 5904 5904 5904 5904 5905 5906 5906 5907 5908 5909 5909 5910 5910 5911 5910 5912 5913 5915 5917 5918 5919 5921 5923 5925 5926 5926 5928 5928 5928 5928 5928 5927 5927
5911 5910 5909 5909 5908 5907 5906 5904 5903 5902 5902 5903 5903 5903 5903 5904 5905 5906 5908 5908 5909 5909 5909 5910 5911 5912 5912 5913 5916 5917 5919 5920 5921 5924 5925 5926 5927 5928 5928 5928 5928 5928 5927
5913 5912 5910 5908 5908 5908 5907 5906 5903 5901 5899 5900 5901 5902 5902 5903 5903 5905 5907 5908 5908 5909 5909 5910 5911 5912 5913 5913 5913 5916 5918 5920 5921 5923 5924 5926 5927 5928 5928 5928 5928 5927 5927
5914 5911 5909 5907 5906 5906 5906 5905 5904 5902 5901 5898 5898 5899 5900 5900 5902 5903 5905 5906 5907 5908 5908 5908 5910 5911 5912 5912 5913 5913 5916 5918 5920 5923 5923 5925 5926 5926 5927 5927 5927 5927 5927
5914 5911 5908 5905 5903 5902 5903 5903 5901 5901 5900 5899 5897 5896 5897 5898 5900 5902 5903 5905 5906 5907 5908 5908 5909 5910 5910 5910 5911 5912 5914 5916 5918 5920 5922 5923 5924 5924 5925 5926 5926 5927 5926
5914 5911 5908 5905 5900 5897 5899 5899 5896 5896 5896 5897 5897 5895 5895 5897 5899 5900 5901 5903 5905 5905 5906 5907 5907 5908 5909 5909 5910 5911 5912 5914 5915 5916 5918 5920 5921 5922 5923 5923 5925 5925 5925
5914 5911 5908 5905 5900 5899 5898 5895 5892 5891 5891 5892 5892 5894 5894 5895 5898 5900 5899 5900 5902 5903 5902 5904 5905 5905 5906 5907 5907 5908 5910 5911 5913 5914 5914 5916 5917 5919 5920 5921 5922 5922 5923
5914 5910 5908 5905 5902 5899 5895 5892 5889 5887 5887 5886 5888 5890 5891 5892 5893 5897 5899 5899 5900 5900 5900 5901 5901 5902 5904 5904 5904 5905 5907 5908 5909 5911 5912 5912 5914 5915 5916 5918 5918 5919 5919
5914 5910 5907 5905 5900 5896 5891 5890 5886 5883 5882 5882 5884 5885 5886 5884 5890 5896 5897 5897 5898 5898 5898 5898 5899 5900 5901 5901 5902 5902 5903 5904 5905 5907 5908 5909 5910 5911 5912 5913 5913 5913 5914
5913 5911 5906 5903 5898 5893 5889 5886 5882 5879 5879 5880 5880 5884 5884 5884 5888 5892 5896 5896 5896 5896 5896 5897 5897 5896 5897 5897 5897 5898 5899 5899 5900 5901 5902 5904 5905 5906 5907 5908 5909 5910 5910
5912 5911 5907 5902 5897 5891 5888 5884 5877 5874 5876 5877 5879 5883 5884 5886 5887 5890 5893 5894 5894 5894 5893 5893 5893 5892 5893 5893 5892 5893 5894 5894 5895 5897 5898 5900 5900 5901 5902 5903 5905 5906 5906
5913 5910 5907 5902 5897 5893 5887 5880 5873 5872 5875 5877 5879 5881 5883 5885 5885 5887 5887 5888 5889 5890 5890 5889 5889 5888 5888 5887 5887 5888 5889 5889 5890 5893 5894 5896 5897 5897 5897 5899 5900 5901 5901
5914 5910 5906 5902 5896 5891 5884 5877 5870 5870 5872 5875 5878 5880 5883 5884 5884 5884 5885 5886 5887 5887 5887 5885 5885 5884 5884 5884 5885 5885 5886 5885 5886 5888 5890 5891 5892 5893 5894 5894 5894 5895 5897
5912 5909 5905 5901 5896 5890 5883 5876 5874 5873 5872 5874 5877 5880 5882 5882 5881 5882 5883 5884 5884 5884 5884 5882 5882 5881 5881 5881 5882 5882 5882 5882 5882 5882 5885 5886 5887 5888 5889 5890 5890 5891 5891
5909 5906 5903 5900 5896 5891 5886 5881 5877 5875 5875 5875 5876 5879 5880 5879 5879 5881 5882 5882 5882 5881 5878 5878 5878 5878 5878 5878 5878 5878 5878 5878 5879 5879 5880 5881 5882 5883 5884 5884 5885 5886 5888
5907 5902 5898 5896 5894 5890 5887 5884 5880 5878 5877 5875 5876 5879 5880 5880 5881 5881 5881 5880 5879 5877 5877 5876 5876 5875 5875 5874 5874 5874 5873 5873 5874 5875 5875 5876 5877 5878 5879 5879 5880 5882 5883
5905 5900 5897 5894 5892 5890 5887 5884 5881 5879 5879 5878 5878 5879 5880 5879 5879 5878 5878 5877 5875 5876 5875 5874 5873 5873 5871 5870 5869 5868 5868 5868 5870 5870 5870 5871 5872 5873 5874 5874 5875 5875 5877
5904 5901 5897 5893 5890 5888 5885 5881 5879 5878 5876 5877 5877 5876 5876 5876 5875 5876 5876 5875 5874 5874 5873 5872 5871 5870 5868 5866 5864 5863 5863 5863 5864 5866 5866 5867 5867 5868 5868 5869 5869 5869 5871